[[{"header":{"parameterUnit":"m.s-1","parameterCategory":1,"la1":30.2991,"la2":30.254,"lo1":-89.0895,"lo2":-89.0444,"dy":0.0017,"dx":0.0017,"nx":28,"ny":28,"refTime":"2024-04-30T21:00:00:Z","depth":0,"parameterNumber":2,"parameterNumberName":"U-component_of_WINDS"},"data":[0,0,0,0,0,0,0,0,0,0,0,0,0,0,0,0,0,0,0,0,0,0,0,0,0,0,0,0,0,0,0,0,0,0,0,0,0,0,0,0,0,0,0,0,0,0,0,0,0,0,0,0,0,0,0,0,0,0,-0.347,-0.347,0,-0.3431,-0.3431,-0.3431,-0.3413,-0.3413,-0.3413,-0.3413,-0.3373,-0.3372,-0.3371,0,0,0,0,0,0,0,0,0,0,0,0,0,-0.3529,-0.3528,-0.347,-0.347,-0.3469,-0.3432,-0.3431,-0.343,-0.3413,-0.3413,-0.3413,-0.3413,-0.3373,-0.3372,-0.3371,0,0,0,0,0,0,0,0,0,0,0,0,0,-0.3498,-0.3528,-0.3471,-0.3456,-0.3455,-0.3432,-0.3431,-0.343,-0.3413,-0.3413,-0.3413,-0.3413,-0.3374,-0.3372,-0.3371,-0.3359,0,0,-0.3365,-0.3365,0,0,0,0,0,0,0,0,-0.35,-0.3496,-0.3459,-0.3457,-0.3455,-0.3427,-0.3437,-0.3406,-0.3413,-0.3429,-0.3413,-0.3414,-0.3391,-0.3388,-0.338,-0.3357,-0.3355,-0.3365,-0.3364,-0.3363,-0.3363,0,0,0,0,0,0,0,-0.3502,-0.3498,-0.3455,-0.3458,-0.3456,-0.3452,-0.3447,-0.3431,-0.341,-0.3428,-0.3426,-0.3422,-0.339,-0.3382,-0.3379,-0.3354,-0.3365,-0.3364,-0.3363,-0.3362,-0.3318,-0.3318,0,0,0,0,0,0,-0.3507,-0.3499,-0.3456,-0.3454,-0.3478,-0.345,-0.3446,-0.3436,-0.341,-0.3406,-0.3422,-0.3421,-0.3385,-0.3381,-0.3378,-0.3361,-0.3364,-0.3362,-0.3361,-0.3318,-0.3318,-0.3318,0,0,0,0,0,0,-0.3508,-0.3503,-0.3458,-0.3476,-0.347,-0.3449,-0.3439,-0.3435,-0.3427,-0.3406,-0.3402,-0.3418,-0.3385,-0.338,-0.3363,-0.336,-0.3361,-0.336,-0.3318,-0.3318,-0.3318,-0.3329,0,0,0,0,0,0,-0.351,-0.3504,-0.3499,-0.3476,-0.3469,-0.3444,-0.3439,-0.3435,-0.3425,-0.3423,-0.3401,-0.3397,-0.3385,-0.3366,-0.3362,-0.3358,-0.3358,-0.3318,-0.3318,-0.3318,-0.3329,-0.3329,-0.333,0,0,0,0,0,-0.3512,-0.3504,-0.3499,-0.3494,-0.3463,-0.3444,-0.344,-0.3426,-0.3424,-0.3419,-0.3405,-0.3398,-0.3361,-0.3364,-0.3359,-0.3355,-0.3319,-0.3318,-0.3318,-0.3329,-0.3329,-0.333,0,0,0,0,0,0,-0.3527,-0.3501,-0.3495,-0.3479,-0.3464,-0.3441,-0.3435,-0.3427,-0.3412,-0.3411,-0.3394,-0.3389,-0.3373,-0.3362,-0.3367,-0.3341,-0.3339,-0.3338,-0.3349,-0.3349,-0.335,-0.3352,-0.3357,0,0,0,0,0,-0.3528,-0.3515,-0.3493,-0.3481,-0.3474,-0.3456,-0.3447,-0.3437,-0.3421,-0.3414,-0.3399,-0.3383,-0.3367,-0.3358,-0.3343,-0.3327,-0.3322,-0.3322,-0.3322,-0.3322,-0.3321,-0.3311,-0.3311,-0.3316,-0.3316,-0.3316,0,0,-0.3531,-0.3515,-0.3508,-0.3484,-0.3471,-0.3457,-0.345,-0.3436,-0.3426,-0.3412,-0.3395,-0.3383,-0.3364,-0.3348,-0.334,-0.3338,-0.3318,-0.3322,-0.3322,-0.3321,-0.3311,-0.331,-0.331,-0.3316,-0.3316,-0.3316,0,0,-0.3529,-0.3516,-0.3505,-0.3492,-0.3472,-0.346,-0.3457,-0.3436,-0.3427,-0.341,-0.3399,-0.3386,-0.336,-0.3347,-0.3337,-0.3329,-0.3321,-0.3325,-0.3326,-0.3317,-0.3317,-0.3316,-0.3313,-0.3312,-0.3324,-0.3324,-0.3324,0,-0.3536,-0.3515,-0.35,-0.3486,-0.3476,-0.3462,-0.345,-0.3438,-0.3415,-0.3408,-0.3406,-0.3373,-0.3359,-0.3339,-0.3337,-0.333,-0.3326,-0.3327,-0.3318,-0.3317,-0.3317,-0.3313,-0.3312,-0.3324,-0.3324,-0.3324,-0.3324,0,-0.3523,-0.3509,-0.3502,-0.3479,-0.3468,-0.3455,-0.3438,-0.3428,-0.3419,-0.3407,-0.3389,-0.3372,-0.3353,-0.3348,-0.3339,-0.3326,-0.3326,-0.3321,-0.3319,-0.3317,-0.3313,-0.3312,-0.3325,-0.3325,-0.3325,-0.3325,0,0,-0.353,-0.3499,-0.3496,-0.3486,-0.3463,-0.3451,-0.3438,-0.3419,-0.341,-0.3395,-0.3382,-0.3361,-0.3356,-0.3345,-0.3334,-0.3326,-0.3321,-0.3323,-0.3322,-0.3322,-0.3305,-0.3308,-0.3307,-0.3315,-0.3315,-0.3315,-0.3306,0,-0.3524,-0.35,-0.3486,-0.3466,-0.3453,-0.3439,-0.3427,-0.3412,-0.34,-0.3386,-0.3373,-0.3358,-0.3353,-0.3346,-0.3338,-0.3323,-0.3317,-0.3324,-0.3303,-0.3303,-0.3308,-0.3305,-0.3308,-0.3301,-0.3305,-0.3304,-0.3304,0,-0.3515,-0.3499,-0.3479,-0.3457,-0.345,-0.344,-0.3421,-0.3408,-0.339,-0.3382,-0.3369,-0.3359,-0.3343,-0.3342,-0.332,-0.3325,-0.3316,-0.3308,-0.3307,-0.3304,-0.3303,-0.3301,-0.3298,-0.3297,-0.3302,-0.3302,-0.3302,0,-0.3521,-0.3495,-0.3479,-0.347,-0.3444,-0.3437,-0.3426,-0.3408,-0.3397,-0.3381,-0.3374,-0.3356,-0.3346,-0.3332,-0.3317,-0.3317,-0.3296,-0.3294,-0.3289,-0.3289,-0.3284,-0.3285,-0.3279,-0.3279,-0.3279,-0.3279,-0.3279,0,-0.3517,-0.3505,-0.3481,-0.3471,-0.3457,-0.3441,-0.3427,-0.3415,-0.3399,-0.3386,-0.3373,-0.3362,-0.3343,-0.3328,-0.3316,-0.33,-0.3296,-0.3288,-0.3285,-0.3289,-0.329,-0.3282,-0.3282,-0.3279,-0.3279,-0.3279,-0.3279,0,-0.3521,-0.3505,-0.3487,-0.3464,-0.3457,-0.3448,-0.3428,-0.3418,-0.3405,-0.3389,-0.3384,-0.3364,-0.3347,-0.333,-0.3307,-0.3299,-0.3282,-0.3278,-0.3288,-0.3286,-0.3282,-0.3282,-0.327,-0.3268,-0.3271,-0.3271,-0.3271,0,-0.3519,-0.3509,-0.3485,-0.3476,-0.3465,-0.345,-0.3438,-0.3422,-0.3411,-0.3389,-0.3381,-0.3363,-0.3347,-0.332,-0.3303,-0.3285,-0.328,-0.3277,-0.3277,-0.3281,-0.3279,-0.328,-0.3279,-0.3278,-0.3278,-0.3278,-0.3278,0,-0.3517,-0.3509,-0.3494,-0.3476,-0.3463,-0.3448,-0.3432,-0.3425,-0.3405,-0.3393,-0.3375,-0.3363,-0.3339,-0.3321,-0.33,-0.3289,-0.328,-0.3278,-0.3275,-0.3279,-0.3285,-0.3281,-0.3288,-0.3278,-0.3278,-0.3278,-0.3278,-0.3278,-0.3518,-0.3508,-0.3489,-0.3472,-0.3459,-0.3444,-0.3433,-0.3419,-0.3403,-0.3383,-0.3374,-0.3355,-0.3337,-0.3309,-0.3297,-0.3282,-0.328,-0.3277,-0.3276,-0.3275,-0.3276,-0.3288,-0.3278,-0.3278,-0.3278,-0.3278,-0.3278,0,-0.3514,-0.3501,-0.3486,-0.3464,-0.3451,-0.3444,-0.3426,-0.3415,-0.3399,-0.3382,-0.3367,-0.3346,-0.3328,-0.3309,-0.329,-0.3281,-0.3277,-0.3277,-0.3277,-0.3274,-0.3279,-0.3282,-0.3281,-0.3281,-0.3281,-0.3281,-0.3281,-0.3281,-0.3511,-0.3494,-0.3484,-0.346,-0.3447,-0.3429,-0.3419,-0.3405,-0.3392,-0.3369,-0.3354,-0.3342,-0.3324,-0.3304,-0.3287,-0.3282,-0.3275,-0.3276,-0.327,-0.3274,-0.3274,-0.3274,-0.3277,-0.3275,-0.3275,-0.3267,-0.3267,-0.3267]},{"header":{"parameterUnit":"m.s-1","parameterCategory":1,"la1":30.2991,"la2":30.254,"lo1":-89.0895,"lo2":-89.0444,"dy":0.0017,"dx":0.0017,"nx":28,"ny":28,"refTime":"2024-04-30T21:00:00:Z","depth":0,"parameterNumber":3,"parameterNumberName":"V-component_of_WINDS"},"data":[0,0,0,0,0,0,0,0,0,0,0,0,0,0,0,0,0,0,0,0,0,0,0,0,0,0,0,0,0,0,0,0,0,0,0,0,0,0,0,0,0,0,0,0,0,0,0,0,0,0,0,0,0,0,0,0,0,0,0.4003,0.4004,0,0.4092,0.4093,0.4094,0.4101,0.41,0.41,0.4099,0.4194,0.4197,0.4201,0,0,0,0,0,0,0,0,0,0,0,0,0,0.3845,0.3847,0.4003,0.4004,0.4005,0.4091,0.4093,0.4094,0.4102,0.41,0.4099,0.4098,0.4193,0.4197,0.4201,0,0,0,0,0,0,0,0,0,0,0,0,0,0.3921,0.3848,0.4003,0.4019,0.4022,0.4091,0.4093,0.4094,0.4102,0.41,0.4099,0.4098,0.4191,0.4196,0.4201,0.4262,0,0,0.4217,0.4219,0,0,0,0,0,0,0,0,0.3917,0.3927,0.4016,0.4018,0.4021,0.4084,0.4072,0.4151,0.4102,0.4072,0.4099,0.4097,0.4159,0.4166,0.4186,0.4266,0.427,0.4218,0.4221,0.4223,0.4224,0,0,0,0,0,0,0,0.3912,0.3923,0.4038,0.4017,0.402,0.4024,0.4033,0.4087,0.4122,0.4074,0.4075,0.4085,0.416,0.4181,0.4189,0.4272,0.4217,0.4222,0.4225,0.4227,0.4406,0.4407,0,0,0,0,0,0,0.3903,0.3919,0.4035,0.4041,0.3964,0.4028,0.4038,0.4065,0.4122,0.4129,0.4086,0.4085,0.4173,0.4183,0.4192,0.4267,0.4223,0.4228,0.4231,0.4404,0.4406,0.4408,0,0,0,0,0,0,0.3899,0.3913,0.4032,0.398,0.3996,0.4032,0.4062,0.4068,0.4089,0.4131,0.4137,0.4101,0.4173,0.4185,0.4244,0.427,0.423,0.4235,0.4402,0.4405,0.4407,0.4417,0,0,0,0,0,0,0.3895,0.3912,0.3934,0.3981,0.3998,0.4082,0.4064,0.4071,0.4098,0.4097,0.4147,0.4154,0.4172,0.4236,0.4249,0.4277,0.4239,0.44,0.4403,0.4406,0.4414,0.4419,0.4423,0,0,0,0,0,0.3889,0.3935,0.3935,0.3949,0.4027,0.4083,0.4093,0.4113,0.41,0.4123,0.415,0.4152,0.4265,0.4242,0.4257,0.4286,0.4398,0.4402,0.4406,0.4412,0.4418,0.4423,0,0,0,0,0,0,0.3893,0.3941,0.3943,0.4004,0.4039,0.4084,0.4115,0.4118,0.4159,0.4157,0.418,0.4192,0.425,0.4274,0.4248,0.4347,0.433,0.4337,0.433,0.4336,0.4341,0.4335,0.4243,0,0,0,0,0,0.39,0.394,0.3981,0.4031,0.4049,0.4078,0.4104,0.4115,0.4153,0.4168,0.4199,0.4237,0.4281,0.431,0.4352,0.4417,0.4428,0.4444,0.4449,0.4452,0.4458,0.4495,0.4502,0.442,0.442,0.442,0,0,0.3917,0.3948,0.3973,0.4033,0.4061,0.4103,0.4091,0.4136,0.4168,0.4176,0.4233,0.4257,0.4301,0.4363,0.4392,0.4385,0.4483,0.4457,0.4459,0.4464,0.4499,0.4507,0.4514,0.4423,0.4422,0.4422,0,0,0.397,0.3997,0.4042,0.407,0.4112,0.4132,0.4142,0.4186,0.4202,0.426,0.4266,0.4305,0.438,0.4411,0.4436,0.4499,0.4503,0.4512,0.4537,0.4572,0.4578,0.4584,0.4607,0.4615,0.4518,0.4518,0.4518,0,0.3986,0.4048,0.4065,0.411,0.4136,0.4143,0.4189,0.4216,0.4271,0.429,0.428,0.4374,0.4404,0.4473,0.4488,0.4508,0.4522,0.4507,0.4575,0.4582,0.4587,0.461,0.4618,0.4518,0.4518,0.4518,0.4518,0,0.4066,0.411,0.4141,0.4192,0.4222,0.4267,0.4292,0.432,0.4329,0.4349,0.4408,0.4444,0.4494,0.451,0.452,0.4581,0.4576,0.457,0.4554,0.4596,0.4617,0.4626,0.452,0.4519,0.4519,0.4519,0,0,0.4126,0.4184,0.4195,0.4218,0.4265,0.4299,0.4345,0.4392,0.4416,0.4453,0.4493,0.4555,0.455,0.4579,0.4592,0.4622,0.467,0.4614,0.4615,0.4624,0.4741,0.4746,0.4755,0.4672,0.4674,0.4675,0.4738,0,0.4185,0.4265,0.428,0.4351,0.4391,0.4397,0.4436,0.447,0.449,0.4528,0.455,0.4595,0.4584,0.4602,0.4632,0.4658,0.4694,0.4653,0.4711,0.4713,0.4701,0.4766,0.4772,0.4829,0.4746,0.4748,0.4749,0,0.4265,0.4302,0.4375,0.4415,0.4433,0.4468,0.4512,0.4548,0.4586,0.4599,0.463,0.4639,0.4687,0.4667,0.4735,0.4707,0.4731,0.4747,0.475,0.4758,0.4735,0.4777,0.4848,0.4857,0.4762,0.4761,0.476,0,0.4302,0.437,0.4423,0.4442,0.449,0.4515,0.4537,0.4573,0.46,0.4639,0.4657,0.4701,0.4726,0.476,0.4781,0.4764,0.4848,0.4829,0.4861,0.4861,0.488,0.4879,0.4957,0.4893,0.4893,0.4893,0.4893,0,0.4367,0.4412,0.444,0.4473,0.4524,0.4541,0.4591,0.4613,0.4645,0.4683,0.469,0.4726,0.475,0.479,0.4806,0.4861,0.4872,0.4884,0.4888,0.4884,0.4883,0.4902,0.4899,0.4895,0.4895,0.4894,0.4894,0,0.4419,0.4439,0.4497,0.4537,0.4548,0.4583,0.4618,0.4651,0.4669,0.4717,0.4729,0.476,0.4806,0.483,0.4889,0.49,0.4961,0.4962,0.4948,0.495,0.4981,0.4978,0.5076,0.509,0.5014,0.5015,0.5016,0,0.446,0.4494,0.4537,0.4561,0.4583,0.4623,0.465,0.4668,0.4696,0.4741,0.4768,0.4815,0.4853,0.4927,0.4956,0.5,0.5003,0.5034,0.5011,0.5005,0.5006,0.5004,0.5008,0.5039,0.504,0.5041,0.5041,0,0.4531,0.4538,0.4576,0.4617,0.4648,0.4682,0.4716,0.4736,0.4759,0.4791,0.4837,0.4867,0.4925,0.4972,0.5018,0.5041,0.5046,0.5048,0.5058,0.5055,0.5046,0.5053,0.4961,0.5046,0.5046,0.5045,0.5045,0.5045,0.4579,0.461,0.4644,0.4686,0.4712,0.4743,0.4775,0.4797,0.4835,0.4883,0.4892,0.4941,0.4978,0.504,0.5065,0.5105,0.5099,0.5113,0.5117,0.5121,0.5123,0.5038,0.5113,0.5113,0.5113,0.5113,0.5113,0,0.4652,0.4673,0.4711,0.4756,0.4789,0.4787,0.4824,0.4852,0.4895,0.4928,0.4964,0.5018,0.5063,0.5093,0.5139,0.5165,0.5168,0.5177,0.5176,0.5181,0.5125,0.5112,0.5173,0.5173,0.5173,0.5173,0.5173,0.5173,0.4694,0.4746,0.4757,0.4822,0.4844,0.4892,0.4912,0.4941,0.4967,0.5026,0.5062,0.5081,0.5113,0.5161,0.5202,0.521,0.5227,0.5236,0.5244,0.5192,0.5185,0.5179,0.5168,0.5239,0.5239,0.5297,0.5298,0.5298]}]]